This demonstration page uses our WeatherBlox Daily Observations layout. Learn more.

Left ArrowRight Arrow

Hourly Observations for May 9, 2016

Temp ( °F °C ) Dew Point ( °F °C ) Humidity (%) Winds ( mph kmh ) Pressure ( in mb ) Visibility ( mi km ) Precip ( " mm )
12:06 am 00:06 Cloudy with Strong Thunderstorms 61 16 57 14 88 88 WSW 8 13 29.68 1005 2 2 0.00 0.00
12:16 am 00:16 Cloudy with Strong Thunderstorms 59 15 55 13 88 88 W 8 13 29.65 1004 1 2 0.00 0.00
12:54 am 00:54 Cloudy with Thunderstorms 58 14.4 56 13.3 93 93 SE 6 9 29.70 1006 3 4 0.64 16.26
12:59 am 00:59 Cloudy with Nearby Thunderstorms 58 14.4 57 13.9 97 97 SE 6 9 29.68 1005 3 5 0.02 0.51
1:09 am 01:09 Cloudy with Thunderstorms 58 14.4 57 13.9 97 97 Calm 29.68 1005 4 6 0.04 1.02
1:30 am 01:30 Cloudy with Nearby Thunderstorms 57 14 55 13 94 94 NNE 12 19 29.59 1002 8 13 0.00 0.00
1:54 am 01:54 Cloudy with Light Rain 58 14.4 56 13.3 93 93 NE 8 13 29.62 1003 10 16 0.10 2.54
2:54 am 02:54 Cloudy with Light Rain 58 14.4 57 13.9 97 97 SSE 6 9 29.67 1005 7 11 0.04 1.02
3:54 am 03:54 Cloudy with Light Rain 59 15 57 13.9 93 93 SSW 8 13 29.68 1005 6 10 0.06 1.52
4:54 am 04:54 Cloudy with Light Rain 58 14.4 57 13.9 97 97 ENE 17 28 29.59 1002 5 8 0.06 1.52
5:54 am 05:54 Cloudy with Light Rain 59 15 54 12.2 83 83 E 15 24 29.56 1001 10 16 0.01 0.25
6:13 am 06:13 Mostly Cloudy with Nearby Thunderstorms 57 14 55 13 94 94 SE 8 13 29.59 1002 10 16 0.00 0.00
6:34 am 06:34 Mostly Cloudy with Light Rain 57 14 55 13 94 94 ESE 5 7 29.59 1002 10 16 0.00 0.00
6:54 am 06:54 Mostly Cloudy with Light Rain 58 14.4 55 12.8 90 90 ESE 7 11 29.59 1002 7 11 0.00 0.03
7:21 am 07:21 Mostly Cloudy with Nearby Thunderstorms 58 14.4 55 12.8 90 90 ESE 10 17 29.59 1002 10 16 0.01 0.25
7:40 am 07:40 Mostly Cloudy 57 14 55 13 94 94 ESE 9 15 29.59 1002 10 16 0.00 0.00
7:54 am 07:54 Mostly Cloudy 59 15 55 12.8 87 87 ESE 8 13 29.59 1002 10 16 0.01 0.25
8:54 am 08:54 Partly Cloudy 60 15.6 56 13.3 86 86 ESE 18 30 29.56 1001 10 16 0.00 0.00
9:54 am 09:54 Cloudy 64 17.8 56 13.3 75 75 SE 15 24 29.58 1002 10 16 0.00 0.00
10:54 am 10:54 Mostly Sunny 68 20 57 13.9 68 68 SE 18 30 29.57 1002 10 16 0.00 0.00
11:54 am 11:54 Mostly Cloudy 70 21.1 59 15 68 68 ESE 21 33 29.57 1001 10 16 0.00 0.00
12:11 pm 12:11 Mostly Cloudy 68 20 59 15 73 73 SE 21 33 29.53 1000 10 16 0.00 0.00
12:54 pm 12:54 Mostly Cloudy 69 20.6 61 16.1 76 76 SSE 13 20 29.56 1001 10 16 0.00 0.00
1:45 pm 13:45 Mostly Cloudy 71 21.7 61 16.1 71 71 SSE 13 20 29.53 1000 10 16 0.00 0.00
1:54 pm 13:54 Mostly Cloudy 71 21.7 61 16.1 71 71 SE 10 17 29.55 1001 10 16 0.00 0.00
2:54 pm 14:54 Mostly Cloudy 71 21.7 60 15.6 68 68 ESE 3 6 29.55 1001 10 16 0.00 0.00
3:35 pm 15:35 Partly Cloudy with Nearby Thunderstorms 70 21.1 61 16.1 73 73 ESE 7 11 29.53 1000 10 16 0.00 0.00
3:42 pm 15:42 Partly Cloudy with Thunderstorms 70 21 61 16 73 73 ESE 8 13 29.53 1000 10 16 0.00 0.00
3:54 pm 15:54 Mostly Cloudy with Thunderstorms 69 20.6 62 16.7 78 78 ESE 7 11 29.54 1000 9 14 0.00 0.03
4:19 pm 16:19 Cloudy with Thunderstorms 67 19.4 62 16.7 84 84 ENE 8 13 29.50 999 2 3 0.00 0.03
4:32 pm 16:32 Mostly Cloudy with Thunderstorms 66 19 63 17 88 88 ESE 6 9 29.56 1001 9 14 0.00 0.00
4:54 pm 16:54 Partly Cloudy with Thunderstorms 65 18.3 58 14.4 78 78 ENE 10 17 29.52 1000 10 16 0.01 0.25
5:37 pm 17:37 Mostly Cloudy with Thunderstorms 62 16.7 52 11.1 70 70 SE 24 39 29.56 1001 10 16 0.00 0.03
5:44 pm 17:44 Mostly Cloudy with Thunderstorms 59 15 50 10 72 72 ESE 23 37 29.56 1001 10 16 0.00 0.03
5:54 pm 17:54 Cloudy with Strong Thunderstorms 60 15.6 52 11.1 75 75 E 17 28 29.51 999 2 3 0.05 1.27
6:00 pm 18:00 Mostly Cloudy with Thunderstorms 59 15 52 11 77 77 E 14 22 29.53 1000 4 6 0.00 0.00
6:54 pm 18:54 Cloudy with Thunderstorms 60 15.6 51 10.6 72 72 E 18 30 29.54 1000 10 16 0.17 4.32
7:09 pm 19:09 Cloudy with Thunderstorms 61 16.1 52 11.1 72 72 WSW 15 24 29.56 1001 9 14 0.00 0.03
7:54 pm 19:54 Cloudy with Nearby Thunderstorms 59 15 53 11.7 81 81 SSE 10 17 29.62 1003 7 11 0.13 3.30
8:15 pm 20:15 Cloudy with Nearby Thunderstorms 57 14 54 12 88 88 E 20 31 29.62 1003 5 8 0.00 0.00
8:42 pm 20:42 Cloudy with Nearby Thunderstorms 57 14 54 12 88 88 ESE 14 22 29.65 1004 8 13 0.00 0.00
8:54 pm 20:54 Cloudy with Light Rain 57 13.9 53 11.7 87 87 ESE 21 33 29.63 1003 7 11 0.07 1.78
9:35 pm 21:35 Cloudy with Light Rain 57 14 52 11 82 82 SSE 28 44 29.59 1002 10 16 0.00 0.00
9:54 pm 21:54 Partly Cloudy 59 15 51 10.6 75 75 ESE 17 28 29.60 1003 10 16 0.00 0.03
10:54 pm 22:54 Clear 58 14.4 51 10.6 78 78 SSE 10 17 29.60 1002 10 16 0.00 0.00
11:54 pm 23:54 Clear 57 13.9 52 11.1 83 83 WNW 3 6 29.63 1003 10 16 0.00 0.00

Powered by AerisWeather